Location: Kumla
(59.1265°N, 15.1401°E)
Time: 16:39:24
(UTC+01:00)

A-11 Canister half - Pass Details

Date: 12 December 2023
Orbit: 1526 x 1682 km, 47.3° (Epoch: 24 February)

Event Time Altitude Azimuth Distance (km) Brightness Sun altitude
Rises 16:36:56 0° 203° (SSW) 4,906 12.5 -10.5°
Reaches altitude 10° 16:40:51 10° 191° (S) 3,932 11.7 -11.0°
Maximum altitude 16:48:19 24° 142° (SE) 2,957 10.4 -11.8°
Drops below altitude 10° 16:55:48 10° 94° (E) 3,938 10.6 -12.7°
Enters shadow 16:55:52 10° 94° (E) 3,950 10.6 -12.7°
Sets 16:59:42 0° 82° (E) 4,915 - -13.2°
